| time (UTC) | temp F | wind direction | speed MPH | gust MPH | rain 1hr in | rain 24hr in | rain mn in | humidity % | barometer mb |
| 20260902041602 | 65 | 284 | 0.0 | 0.0 | 0.00 | 0.08 | 0.00 | 96 | 1014.8 |
| 20260902040044 | 66 | 284 | 0.0 | 0.0 | 0.01 | 0.08 | 0.00 | 96 | 1014.8 |
| 20260902034549 | 66 | 284 | 0.0 | 0.0 | 0.01 | 0.08 | 0.08 | 96 | 1014.8 |
| 20260902033049 | 67 | 284 | 0.0 | 0.0 | 0.01 | 0.08 | 0.08 | 96 | 1014.8 |
| 20260902031543 | 67 | 284 | 0.0 | 1.0 | 0.01 | 0.08 | 0.08 | 97 | 1014.7 |
| 20260902030044 | 66 | 284 | 0.0 | 1.0 | 0.00 | 0.07 | 0.07 | 96 | 1014.6 |
| 20260902024542 | 66 | 284 | 0.0 | 1.0 | 0.00 | 0.07 | 0.07 | 96 | 1014.6 |
| 20260902023041 | 65 | 284 | 0.0 | 1.0 | 0.00 | 0.07 | 0.07 | 96 | 1014.4 |
| 20260902021540 | 65 | 284 | 0.0 | 2.0 | 0.00 | 0.07 | 0.07 | 95 | 1014.4 |
| 20260902020040 | 66 | 284 | 0.0 | 1.0 | 0.00 | 0.07 | 0.07 | 95 | 1014.1 |
| 20260902014547 | 66 | 284 | 0.0 | 0.0 | 0.00 | 0.07 | 0.07 | 95 | 1014.0 |
| 20260902013045 | 66 | 284 | 0.0 | 2.0 | 0.00 | 0.07 | 0.07 | 95 | 1014.0 |
| 20260902011536 | 66 | 284 | 0.0 | 1.0 | 0.00 | 0.07 | 0.07 | 95 | 1013.9 |
| 20260902010046 | 66 | 284 | 0.0 | 1.0 | 0.00 | 0.07 | 0.07 | 95 | 1014.0 |
| 20260902004536 | 67 | 284 | 1.0 | 2.0 | 0.00 | 0.07 | 0.07 | 94 | 1013.9 |
| 20260902003108 | 67 | 284 | 1.0 | 3.0 | 0.00 | 0.07 | 0.07 | 94 | 1013.5 |
| 20260902001535 | 68 | 76 | 0.0 | 2.0 | 0.00 | 0.07 | 0.07 | 94 | 1013.1 |
| 20260902000035 | 68 | 111 | 0.0 | 3.0 | 0.01 | 0.07 | 0.07 | 93 | 1013.1 |
| 20260901234531 | 68 | 348 | 1.0 | 4.0 | 0.01 | 0.07 | 0.07 | 91 | 1012.6 |
| 20260901233033 | 69 | 196 | 2.0 | 12.0 | 0.01 | 0.07 | 0.07 | 91 | 1012.8 |
| 20260901231530 | 71 | 192 | 9.0 | 18.0 | 0.01 | 0.07 | 0.07 | 88 | 1013.6 |
| 20260901230027 | 74 | 155 | 0.0 | 2.0 | 0.00 | 0.06 | 0.06 | 93 | 1013.2 |
| 20260901224527 | 75 | 246 | 2.0 | 6.0 | 0.01 | 0.06 | 0.06 | 92 | 1012.8 |
| 20260901223027 | 76 | 207 | 2.0 | 4.0 | 0.01 | 0.06 | 0.06 | 91 | 1013.0 |
| 20260901221537 | 78 | 40 | 1.0 | 3.0 | 0.01 | 0.06 | 0.06 | 88 | 1012.6 |
| 20260901220035 | 80 | 67 | 2.0 | 8.0 | 0.01 | 0.06 | 0.06 | 84 | 1012.5 |
| 20260901214524 | 81 | 40 | 0.0 | 6.0 | 0.00 | 0.06 | 0.05 | 81 | 1012.5 |
| 20260901213024 | 82 | 89 | 3.0 | 7.0 | 0.00 | 0.06 | 0.05 | 77 | 1012.3 |
| 20260901211523 | 83 | 42 | 2.0 | 9.0 | 0.00 | 0.06 | 0.05 | 78 | 1012.3 |
| 20260901210021 | 82 | 26 | 3.0 | 6.0 | 0.00 | 0.06 | 0.05 | 78 | 1012.0 |
| 20260901204519 | 82 | 52 | 4.0 | 9.0 | 0.00 | 0.07 | 0.05 | 78 | 1012.2 |
| 20260901203018 | 82 | 5 | 4.0 | 8.0 | 0.00 | 0.07 | 0.05 | 77 | 1012.3 |
| 20260901201516 | 82 | 327 | 4.0 | 9.0 | 0.00 | 0.07 | 0.05 | 77 | 1012.4 |
| 20260901200113 | 82 | 298 | 3.0 | 10.0 | 0.00 | 0.07 | 0.05 | 78 | 1012.6 |
| 20260901194512 | 81 | 319 | 4.0 | 10.0 | 0.00 | 0.07 | 0.05 | 78 | 1012.6 |
| 20260901193012 | 82 | 30 | 4.0 | 9.0 | 0.00 | 0.07 | 0.05 | 79 | 1012.8 |
| 20260901191512 | 81 | 326 | 3.0 | 10.0 | 0.00 | 0.07 | 0.05 | 79 | 1012.7 |
| 20260901190014 | 82 | 10 | 6.0 | 10.0 | 0.00 | 0.07 | 0.05 | 80 | 1012.8 |
| 20260901184508 | 81 | 355 | 2.0 | 11.0 | 0.00 | 0.07 | 0.05 | 80 | 1012.8 |
| 20260901183005 | 81 | 348 | 5.0 | 10.0 | 0.00 | 0.07 | 0.05 | 79 | 1012.9 |
| 20260901181506 | 81 | 355 | 5.0 | 11.0 | 0.00 | 0.07 | 0.05 | 80 | 1012.8 |
| 20260901180100 | 80 | 154 | 3.0 | 10.0 | 0.00 | 0.07 | 0.05 | 83 | 1012.7 |
| 20260901174600 | 79 | 282 | 4.0 | 9.0 | 0.00 | 0.18 | 0.05 | 84 | 1012.6 |
| 20260901173053 | 77 | 316 | 2.0 | 5.0 | 0.00 | 0.18 | 0.05 | 86 | 1012.9 |
| 20260901171609 | 77 | 302 | 2.0 | 4.0 | 0.00 | 0.18 | 0.05 | 86 | 1012.8 |
| 20260901170057 | 76 | 298 | 1.0 | 5.0 | 0.00 | 0.18 | 0.05 | 87 | 1012.9 |
| 20260901164605 | 76 | 318 | 0.0 | 3.0 | 0.00 | 0.35 | 0.05 | 87 | 1012.9 |
| 20260901163106 | 76 | 342 | 1.0 | 5.0 | 0.00 | 0.35 | 0.05 | 86 | 1013.0 |
| 20260901161547 | 76 | 240 | 1.0 | 8.0 | 0.00 | 0.35 | 0.05 | 86 | 1013.0 |
| 20260901160048 | 76 | 333 | 3.0 | 8.0 | 0.00 | 0.35 | 0.05 | 87 | 1013.0 |
| 20260901154553 | 77 | 280 | 2.0 | 7.0 | 0.00 | 0.39 | 0.05 | 88 | 1012.9 |
| 20260901153044 | 77 | 290 | 2.0 | 10.0 | 0.00 | 0.39 | 0.05 | 88 | 1013.0 |
| 20260901151541 | 76 | 242 | 4.0 | 8.0 | 0.00 | 0.39 | 0.05 | 89 | 1013.0 |
| 20260901150037 | 74 | 156 | 2.0 | 5.0 | 0.00 | 0.39 | 0.05 | 95 | 1013.0 |
| 20260901144533 | 73 | 262 | 3.0 | 6.0 | 0.00 | 0.39 | 0.05 | 96 | 1013.0 |
| 20260901143030 | 72 | 206 | 2.0 | 5.0 | 0.00 | 0.39 | 0.05 | 95 | 1013.2 |
| 20260901141529 | 72 | 238 | 1.0 | 4.0 | 0.00 | 0.39 | 0.05 | 96 | 1013.3 |
| 20260901140027 | 72 | 211 | 2.0 | 4.0 | 0.00 | 0.39 | 0.05 | 96 | 1013.3 |
| 20260901134526 | 71 | 327 | 0.0 | 2.0 | 0.00 | 0.39 | 0.05 | 97 | 1013.3 |
| 20260901133026 | 70 | 159 | 0.0 | 3.0 | 0.00 | 0.39 | 0.05 | 96 | 1013.3 |
| 20260901131523 | 70 | 90 | 1.0 | 4.0 | 0.00 | 0.39 | 0.05 | 96 | 1013.4 |
| 20260901130022 | 71 | 13 | 1.0 | 8.0 | 0.00 | 0.39 | 0.05 | 97 | 1013.5 |
| 20260901124519 | 71 | 187 | 1.0 | 4.0 | 0.01 | 0.39 | 0.05 | 97 | 1013.4 |
| 20260901123016 | 70 | 194 | 2.0 | 5.0 | 0.01 | 0.39 | 0.05 | 97 | 1013.5 |
| 20260901121518 | 70 | 188 | 2.0 | 5.0 | 0.01 | 0.39 | 0.05 | 97 | 1013.2 |
| 20260901120013 | 70 | 211 | 0.0 | 4.0 | 0.01 | 0.39 | 0.05 | 97 | 1013.2 |
| 20260901114513 | 70 | 221 | 2.0 | 6.0 | 0.02 | 0.38 | 0.04 | 97 | 1013.2 |
| 20260901113011 | 70 | 215 | 3.0 | 7.0 | 0.03 | 0.38 | 0.04 | 97 | 1013.3 |
| 20260901111509 | 69 | 215 | 2.0 | 8.0 | 0.03 | 0.38 | 0.04 | 97 | 1013.2 |
| 20260901110008 | 69 | 205 | 3.0 | 7.0 | 0.03 | 0.38 | 0.04 | 97 | 1012.9 |
| 20260901104510 | 69 | 227 | 3.0 | 5.0 | 0.01 | 0.36 | 0.02 | 97 | 1013.1 |
| 20260901103007 | 69 | 197 | 2.0 | 6.0 | 0.00 | 0.35 | 0.01 | 97 | 1013.1 |
| 20260901101507 | 69 | 195 | 2.0 | 4.0 | 0.00 | 0.35 | 0.01 | 97 | 1013.2 |
| 20260901100002 | 69 | 221 | 2.0 | 5.0 | 0.00 | 0.35 | 0.01 | 97 | 1013.3 |
| 20260901094503 | 69 | 230 | 1.0 | 5.0 | 0.00 | 0.35 | 0.01 | 97 | 1013.3 |
| 20260901093101 | 68 | 228 | 2.0 | 4.0 | 0.00 | 0.35 | 0.01 | 97 | 1013.4 |
| 20260901091606 | 68 | 211 | 1.0 | 3.0 | 0.00 | 0.35 | 0.01 | 97 | 1013.4 |
| 20260901090101 | 68 | 213 | 2.0 | 5.0 | 0.00 | 0.35 | 0.01 | 97 | 1013.3 |
| 20260901084556 | 68 | 198 | 2.0 | 5.0 | 0.00 | 0.35 | 0.01 | 97 | 1013.5 |
| 20260901083054 | 68 | 159 | 2.0 | 5.0 | 0.00 | 0.35 | 0.01 | 97 | 1013.8 |
| 20260901081553 | 68 | 210 | 1.0 | 2.0 | 0.00 | 0.35 | 0.01 | 97 | 1014.2 |
| 20260901080153 | 68 | 221 | 0.0 | 3.0 | 0.01 | 0.35 | 0.01 | 97 | 1014.2 |
| 20260901074551 | 68 | 209 | 0.0 | 2.0 | 0.01 | 0.35 | 0.01 | 97 | 1014.2 |
| 20260901073048 | 68 | 221 | 0.0 | 2.0 | 0.01 | 0.35 | 0.01 | 97 | 1014.4 |
| 20260901071552 | 68 | 197 | 1.0 | 6.0 | 0.01 | 0.35 | 0.01 | 97 | 1014.5 |
| 20260901070057 | 68 | 196 | 1.0 | 3.0 | 0.00 | 0.34 | 0.00 | 97 | 1014.6 |
| 20260901064602 | 68 | 209 | 1.0 | 4.0 | 0.00 | 0.34 | 0.00 | 97 | 1014.6 |
| 20260901063046 | 68 | 203 | 1.0 | 2.0 | 0.00 | 0.34 | 0.00 | 97 | 1014.7 |
| 20260901061540 | 68 | 214 | 0.0 | 2.0 | 0.00 | 0.34 | 0.00 | 97 | 1014.7 |
| 20260901060042 | 68 | 209 | 0.0 | 2.0 | 0.00 | 0.34 | 0.00 | 97 | 1014.9 |
| 20260901054536 | 68 | 209 | 0.0 | 3.0 | 0.00 | 0.34 | 0.00 | 97 | 1015.1 |
| 20260901053035 | 68 | 209 | 0.0 | 0.0 | 0.00 | 0.34 | 0.00 | 97 | 1015.2 |
| 20260901051535 | 68 | 209 | 0.0 | 0.0 | 0.00 | 0.34 | 0.00 | 97 | 1015.3 |
| 20260901050034 | 68 | 209 | 1.0 | 3.0 | 0.00 | 0.34 | 0.00 | 97 | 1015.3 |
| 20260901044536 | 67 | 209 | 0.0 | 1.0 | 0.00 | 0.34 | 0.00 | 97 | 1015.3 |
| 20260901043033 | 68 | 209 | 0.0 | 0.0 | 0.00 | 0.34 | 0.00 | 97 | 1015.3 |